Voltar ao catálogo

ONEWEB-0138

AtivoComunicaçõesPO
NORAD 47284·PAYLOAD·🇬🇧 United Kingdom

Lançado Dec 18, 2020 de Vostochny Cosmodrome

Loading…

Próximas Passagens (próximas 24 horas)

TLE

AtualizadoSource: CelesTrak SupGP

Época: Sep 14, 2026, 22:36 UTC

1 47284C 20100AC  26257.94183287 -.00001396  00000+0 -38857-2 0  2572
2 47284  87.8983 332.8495 0001715  95.8906 298.5486 13.12443455    10

Acompanhe ONEWEB-0138 em tempo real com AllMySat

Download on the App Store